EW9733 Lewes DE US current weather conditions

sailwx.info

Wind from 038 at 2 knots gusting 6

Air temperature 23.3° C
Dewpoint 21.8° C

Last reported at 2020-Jul-04 11:01 UTC.
Time now 2020-Jul-04 11:47 UTC

Location: N 38°45' W 075°12'.
View on Google Maps.

See reports from other nearby stations

  
Tides and Currents Weather Stations Pressure Air Temp Water Temp Dewpoint Dewpoint Depression Visibility Wind Speed Wind Dir Waves Ship Positions
date/time (UTC)wind fromknots sea level pressurealtimeterstation pressurevisibilityair tempwater tempwave heightnotes
2020-Jul-04 11:01 038 2 gusting 6 23.3
2020-Jul-04 10:45 081 1 gusting 5 23.3
2020-Jul-04 10:30 059 3 gusting 6 23.3
2020-Jul-04 10:15 073 2 gusting 6 22.8
2020-Jul-04 10:00 069 2 gusting 6 22.8
2020-Jul-04 09:46 059 3 gusting 6 22.8
2020-Jul-04 09:31 060 1 gusting 7 23.3
2020-Jul-04 09:16 030 0 gusting 4 22.8
2020-Jul-04 09:01 099 22.8
2020-Jul-04 08:47 178 22.8
2020-Jul-04 08:31 177 22.8
2020-Jul-04 08:17 178 22.8
2020-Jul-04 08:02 181 22.8
2020-Jul-04 07:46 181 23.3
2020-Jul-04 07:31 179 23.3
2020-Jul-04 07:17 179 23.9
2020-Jul-04 07:01 157 23.9
2020-Jul-04 06:46 156 23.9
2020-Jul-04 06:31 163 23.9
2020-Jul-04 06:16 143 23.9
2020-Jul-04 06:02 086 23.9
2020-Jul-04 05:46 094 2 gusting 5 24.4
2020-Jul-04 05:31 068 6 gusting 9 24.4
2020-Jul-04 05:16 067 2 gusting 11 24.4
2020-Jul-04 05:00 057 2 gusting 9 25.0
2020-Jul-04 04:45 055 4 gusting 13 25.6
2020-Jul-04 04:31 084 4 gusting 11 25.6
2020-Jul-04 04:15 068 25.0
2020-Jul-04 03:45 277 25.0
2020-Jul-04 03:30 277 25.0
2020-Jul-04 03:15 223 25.0
2020-Jul-04 03:00 223 25.6
2020-Jul-04 02:45 200 25.6
2020-Jul-04 02:30 200 26.1
2020-Jul-04 02:15 200 26.1
2020-Jul-04 02:00 200 26.7
2020-Jul-04 01:45 200 26.7
2020-Jul-04 01:30 200 27.2
2020-Jul-04 01:15 200 27.2
2020-Jul-04 01:00 200 27.8
2020-Jul-04 00:45 200 28.3
2020-Jul-04 00:31 200 28.9
2020-Jul-04 00:15 200 29.4
2020-Jul-04 00:00 200 30.0
2020-Jul-03 23:45 200 30.6
2020-Jul-03 23:30 199 31.7
2020-Jul-03 23:15 090 32.2
2020-Jul-03 23:00 092 0 gusting 2 32.8
2020-Jul-03 22:45 304 33.3
2020-Jul-03 22:30 052 33.9
2020-Jul-03 22:15 346 33.3
2020-Jul-03 22:00 063 32.8
2020-Jul-03 21:45 015 32.8
2020-Jul-03 21:30 032 0 gusting 3 32.8
2020-Jul-03 21:15 078 0 gusting 4 32.8
2020-Jul-03 21:00 073 0 gusting 4 32.2
2020-Jul-03 20:46 080 32.8
2020-Jul-03 20:31 319 0 gusting 6 33.9
2020-Jul-03 20:16 066 1 gusting 6 33.9
2020-Jul-03 20:02 073 0 gusting 7 33.3
2020-Jul-03 19:46 083 2 gusting 9 33.3
2020-Jul-03 19:31 087 4 gusting 6 33.3
2020-Jul-03 19:16 056 1 gusting 8 33.3
2020-Jul-03 19:02 268 0 gusting 4 33.3
2020-Jul-03 18:46 016 33.3
2020-Jul-03 18:31 019 0 gusting 6 32.8
2020-Jul-03 18:15 074 0 gusting 6 32.8
2020-Jul-03 18:01 053 2 gusting 8 33.3
2020-Jul-03 17:46 071 3 gusting 6 32.8
2020-Jul-03 17:31 059 32.8
2020-Jul-03 17:16 061 2 gusting 6 32.2
2020-Jul-03 17:02 061 0 gusting 6 32.2
2020-Jul-03 16:46 183 0 gusting 6 32.2
2020-Jul-03 16:30 014 1 gusting 5 32.2
2020-Jul-03 16:15 063 1 gusting 6 32.2
2020-Jul-03 16:00 015 0 gusting 3 32.2
2020-Jul-03 15:46 115 0 gusting 6 31.7
2020-Jul-03 15:31 130 1 gusting 6 31.1
2020-Jul-03 15:15 263 1 gusting 6 30.6
2020-Jul-03 15:00 221 0 gusting 6 31.1
2020-Jul-03 14:45 319 1 gusting 7 30.6
2020-Jul-03 14:30 028 1 gusting 7 30.6
2020-Jul-03 14:15 147 0 gusting 6 30.0
2020-Jul-03 14:01 114 0 gusting 6 29.4
2020-Jul-03 13:46 054 1 gusting 7 29.4
2020-Jul-03 13:31 293 0 gusting 6 29.4
2020-Jul-03 13:16 294 28.9
2020-Jul-03 13:01 015 27.8
2020-Jul-03 12:46 281 0 gusting 4 26.1
2020-Jul-03 12:30 257 0 gusting 4 25.6
2020-Jul-03 12:15 304 0 gusting 3 25.0
2020-Jul-03 12:01 290 0 gusting 6 23.9
2020-Jul-03 11:46 313 23.3
2020-Jul-03 11:30 293 0 gusting 3 22.8
2020-Jul-03 11:15 287 22.2
2020-Jul-03 11:00 262 22.2
2020-Jul-03 10:45 355 21.7
2020-Jul-03 10:30 310 21.7
2020-Jul-03 10:15 309 21.7
2020-Jul-03 10:00 264 21.7
2020-Jul-03 09:45 225 21.7
2020-Jul-03 09:30 226 22.2
2020-Jul-03 09:15 248 22.2
2020-Jul-03 09:00 249 22.2
2020-Jul-03 08:45 317 22.2
2020-Jul-03 08:30 340 22.2
2020-Jul-03 08:15 292 22.2
2020-Jul-03 08:01 252 22.2
2020-Jul-03 07:46 252 0 gusting 2 22.8
2020-Jul-03 07:31 265 1 gusting 5 22.8
2020-Jul-03 07:16 238 0 gusting 3 22.8
2020-Jul-03 07:01 244 0 gusting 4 22.8
2020-Jul-03 06:46 264 0 gusting 3 23.3
2020-Jul-03 06:34 265 0 gusting 3 23.3
2020-Jul-03 06:17 270 0 gusting 3 23.3
2020-Jul-03 06:02 279 1 gusting 5 23.3
2020-Jul-03 05:46 295 1 gusting 5 23.3
2020-Jul-03 05:31 288 0 gusting 4 23.3
2020-Jul-03 05:16 238 1 gusting 5 23.3
2020-Jul-03 05:00 261 1 gusting 3 23.3
2020-Jul-03 04:46 250 0 gusting 5 23.9
2020-Jul-03 04:31 265 0 gusting 3 23.9
2020-Jul-03 04:16 269 0 gusting 3 23.9
2020-Jul-03 04:01 274 0 gusting 2 24.4
2020-Jul-03 03:31 261 1 gusting 3 24.4
2020-Jul-03 03:16 274 0 gusting 3 24.4
2020-Jul-03 03:00 275 0 gusting 5 25.0
2020-Jul-03 02:46 267 0 gusting 5 25.0
2020-Jul-03 02:30 279 0 gusting 3 25.6
2020-Jul-03 02:15 265 0 gusting 3 25.6
2020-Jul-03 02:01 257 0 gusting 2 25.6
2020-Jul-03 01:45 273 0 gusting 3 26.1
2020-Jul-03 01:31 284 0 gusting 2 26.7
2020-Jul-03 01:15 263 0 gusting 2 26.7
2020-Jul-03 01:00 273 0 gusting 3 27.2
2020-Jul-03 00:45 284 0 gusting 2 27.2
2020-Jul-03 00:31 259 0 gusting 3 27.8
2020-Jul-03 00:15 283 0 gusting 3 28.3
2020-Jul-03 00:01 266 0 gusting 3 28.3
2020-Jul-02 23:30 273 29.4
2020-Jul-02 23:15 307 0 gusting 5 29.4
2020-Jul-02 23:01 267 0 gusting 4 30.0
2020-Jul-02 22:45 244 0 gusting 6 30.6
2020-Jul-02 22:30 317 1 gusting 6 30.0
2020-Jul-02 22:15 335 0 gusting 4 30.6
2020-Jul-02 22:00 360 30.6
2020-Jul-02 21:45 054 0 gusting 2 30.6
2020-Jul-02 21:30 273 0 gusting 3 30.6
2020-Jul-02 21:15 063 0 gusting 4 31.1
2020-Jul-02 21:00 276 30.6
2020-Jul-02 20:45 351 30.6
2020-Jul-02 20:30 291 1 gusting 3 30.6
2020-Jul-02 20:15 046 0 gusting 3 30.6
2020-Jul-02 20:00 027 30.6
2020-Jul-02 19:45 075 0 gusting 4 30.6
2020-Jul-02 19:30 049 0 gusting 6 30.0
2020-Jul-02 19:15 259 1 gusting 7 30.6
2020-Jul-02 19:00 275 0 gusting 5 30.0
2020-Jul-02 18:45 292 2 gusting 8 30.0
2020-Jul-02 18:33 089 0 gusting 4 29.4
2020-Jul-02 18:16 059 29.4
2020-Jul-02 18:02 046 2 gusting 7 28.9
2020-Jul-02 17:47 014 1 gusting 7 29.4
2020-Jul-02 17:31 061 3 gusting 6 29.4
2020-Jul-02 17:16 053 2 gusting 7 28.9
2020-Jul-02 17:01 012 2 gusting 9 28.9
2020-Jul-02 16:46 076 1 gusting 5 28.3
2020-Jul-02 16:31 235 2 gusting 7 28.3
2020-Jul-02 16:16 021 1 gusting 6 28.3
2020-Jul-02 16:01 309 0 gusting 6 27.8
2020-Jul-02 15:46 083 0 gusting 4 27.8
2020-Jul-02 15:31 315 0 gusting 6 27.2
2020-Jul-02 15:16 069 0 gusting 3 27.2
2020-Jul-02 15:00 317 1 gusting 6 26.7
2020-Jul-02 14:46 175 1 gusting 5 27.2
2020-Jul-02 14:31 028 2 gusting 7 27.2
2020-Jul-02 14:16 053 1 gusting 6 26.1
2020-Jul-02 14:00 068 0 gusting 7 26.1
2020-Jul-02 13:45 309 0 gusting 5 26.1
2020-Jul-02 13:30 308 0 gusting 5 25.6
2020-Jul-02 13:15 101 2 gusting 6 24.4
2020-Jul-02 13:00 053 1 gusting 5 24.4
2020-Jul-02 12:46 069 0 gusting 4 23.3
2020-Jul-02 12:32 074 0 gusting 3 22.8
2020-Jul-02 12:16 024 22.2
2020-Jul-02 12:01 247 21.7
2020-Jul-02 11:46 296 21.1
2020-Jul-02 11:31 294 20.6
2020-Jul-02 11:17 295 20.6
2020-Jul-02 11:01 020 20.0